FENGYUN 1C DEB, 30157

Orbit data source: Space-Track

FENGYUN 1C DEB, 30157 is space debris in SSO originally from a launch on Mon, 10 May 1999 UTC launched from the Taiyaun Space Center, China (TSC). Fengyun 1C debris stems from the Chinese weather satellite Fengyun-1C, which was intentionally destroyed by a Chinese anti-satellite missile in 2007. This event dramatically increased the amount of space debris, with thousands of trackable fragments posing hazards to satellites and human spaceflight. The Fengyun 1C debris cloud has become a focal point in discussions about space sustainability and the need for international regulations to prevent the creation of new debris.

Loading next visibility...
Identifier
30157, 1999-025TN
Orbit
SSO
Country
Flag of CNCN / PRC
Related business
Manufacturer
Unknown
Mission
Spacecraft
Bus & Motor
Unknown
Mass
Unknown
Launch date (UTC)
1999-05-10 (27 years ago)
Launch vehicle
Unknown
Launch site
Taiyaun Space Center, China (TSC)
Object type
Payload
Rocket body
Debris
Shape & HBR
Unknown shape, 0.1 m
Radar Cross Section
Small (<0.1 m²)

Expand to show TLE details & history
Last TLE update: 7 hours ago

TLE from 7 hours ago
0 FENGYUN 1C DEB
1 30157U 99025TN  26254.28133668  .00003979  00000-0  10663-2 0  9993
2 30157  98.7205   4.2453 0035413  96.3872 291.9752 14.48403655 20094
Epoch: 2026-09-11T06:45Z
TLE epoch observation values (Epoch: 2026-09-11T06:45:07.489Z)
Latitude
27.6766°
Longitude
-91.93251°
Altitude
724.941 km
Speed
7.5 km/s
True Right ascension
23h 58m 37s
True Declination
27° 32' 05"
Sunlit
Object was in full shadow at epoch
Visualization orbit readout
Latitude
Unknown
Longitude
Unknown
Altitude
Unknown
Speed
Unknown
Apparent Right ascension
Unknown
Apparent Declination
Unknown
Sunlit
N/A
Visualization observer readout
Local Sidereal Time
05:39:27
Azimuth
Unknown
Elevation
Unknown
Doppler factor
Unknown
Orbital elements
Apogee altitude
753.153 km
Perigee altitude
702.823 km
Semi-major axis
7,106.125 km
Eccentricity
0.00354
Inclination
98.7205°
RAAN
4.2453°
Arg. of periapsis
96.3872°
True anomaly
291.59826°
Mean anomaly
291.9752°
Eccentric anomaly
291.78679°
Mean motion
3.62321 °/min
Orbital period
99.36 mins
BSTAR
0.0010663
Loading maneuver chart data...
Computing Atmospheric mass density...
Loading historical data...
Loading historical data...
Loading historical data...
Loading historical data...
Loading historical data...
Loading historical data...
Loading historical data...

Documentation

Showing up to 5 results
|